Delta, CO

2:16 PM MST on January 17, 2018 (GMT -0700)
Delta

Weather History for KAJZ - April, 2013

Change the Weather History Date:

Tuesday, April 16, 2013

  Actual Average (KMTJ) Record (KMTJ)
Temperature  
Mean Temperature 50 °F -  
Max Temperature 66 °F 60 °F 75 °F (2005)
Min Temperature 35 °F 32 °F 16 °F (1999)
Degree Days  
Heating Degree Days 14    
Moisture  
Dew Point 29 °F    
Average Humidity 53    
Maximum Humidity 91    
Minimum Humidity 17    
Precipitation  
Precipitation 0.00 in - - ()
Sea Level Pressure  
Sea Level Pressure 29.62 in    
Wind  
Wind Speed 11 mph (West)    
Max Wind Speed 36 mph    
Max Gust Speed 48 mph    
Visibility 10 miles    
Events      
Averages and records for this station are not official NWS values.
T = Trace of Precipitation, MM = Missing Value Source: NWS Daily Summary

Daily Weather History Graph

Daily Weather History Graph

Search for Another Location

Airport or City:

Trip Planner

Search our weather history database for the weather conditions in past years. The results will help you decide how hot, cold, wet, or windy it might be!

Date:

Astronomy

Apr. 16, 2013 Rise Set
Actual Time 6:34 AM MDT 7:50 PM MDT
Civil Twilight 6:06 AM MDT 8:18 PM MDT
Nautical Twilight 5:33 AM MDT 8:51 PM MDT
Astronomical Twilight 4:58 AM MDT 9:25 PM MDT
Moon 10:56 AM MDT (4/16) 12:48 AM MDT (4/16)
Length of Visible Light 14h 11m
Length of Day
13h 16m
Waxing Crescent, 34% of the Moon is Illuminated
Apr 16
Waxing Crescent
Apr 18
First Quarter
Apr 25
Full
May 2
Last Quarter
May 9
New

Hourly Weather History & Observations

Time (MDT) Temp. Windchill Dew Point Humidity Pressure Visibility Wind Dir Wind Speed Gust Speed Precip Events Conditions
12:15 AM 37.0 °F 31.6 °F 34.3 °F 90% 29.63 in 10.0 mi ENE 6.9 mph - N/A   Scattered Clouds
12:35 AM 36.1 °F 33.5 °F 33.8 °F 91% 29.64 in 10.0 mi East 3.5 mph - N/A   Clear
12:55 AM 36.5 °F 31.8 °F 33.4 °F 89% 29.64 in 10.0 mi NE 5.8 mph - N/A   Clear
1:15 AM 36.5 °F 33.9 °F 33.6 °F 89% 29.64 in 10.0 mi North 3.5 mph - N/A   Clear
1:35 AM 37.4 °F 30.3 °F 33.4 °F 86% 29.63 in 10.0 mi NE 10.4 mph - N/A   Clear
1:55 AM 36.5 °F 31.0 °F 33.1 °F 87% 29.63 in 10.0 mi NNE 6.9 mph - N/A   Clear
2:15 AM 36.9 °F 30.7 °F 33.3 °F 87% 29.63 in 10.0 mi East 8.1 mph - N/A   Clear
2:35 AM 36.0 °F 31.1 °F 32.4 °F 87% 29.62 in 10.0 mi East 5.8 mph - N/A   Clear
2:55 AM 36.1 °F 32.3 °F 32.4 °F 86% 29.62 in 10.0 mi East 4.6 mph - N/A   Clear
3:15 AM 36.5 °F 31.8 °F 32.2 °F 84% 29.61 in 10.0 mi ENE 5.8 mph - N/A   Clear
3:35 AM 36.7 °F 29.4 °F 32.2 °F 84% 29.61 in 10.0 mi NE 10.4 mph - N/A   Clear
3:55 AM 36.7 °F 34.1 °F 32.2 °F 84% 29.61 in 10.0 mi NNE 3.5 mph - N/A   Clear
4:15 AM 38.5 °F 36.1 °F 32.4 °F 79% 29.61 in 10.0 mi ESE 3.5 mph - N/A   Clear
4:35 AM 36.3 °F - 32.0 °F 84% 29.61 in 10.0 mi Calm Calm - N/A   Clear
4:55 AM 35.6 °F 32.8 °F 32.0 °F 87% 29.62 in 10.0 mi WSW 3.5 mph - N/A   Clear
5:15 AM 35.4 °F - 32.0 °F 87% 29.62 in 10.0 mi Calm Calm - N/A   Clear
5:35 AM 35.4 °F - 32.0 °F 87% 29.63 in 10.0 mi Calm Calm - N/A   Clear
6:15 AM 35.8 °F - 32.0 °F 86% 29.64 in 10.0 mi Calm Calm - N/A   Clear
6:35 AM 35.4 °F 31.5 °F 32.0 °F 87% 29.64 in 10.0 mi ENE 4.6 mph - N/A   Clear
6:55 AM 36.7 °F 31.2 °F 32.0 °F 83% 29.64 in 10.0 mi North 6.9 mph - N/A   Clear
7:15 AM 39.7 °F 36.5 °F 32.0 °F 74% 29.64 in 10.0 mi North 4.6 mph - N/A   Clear
7:35 AM 40.5 °F - 32.2 °F 72% 29.65 in 10.0 mi Calm Calm - N/A   Scattered Clouds
7:55 AM 43.5 °F 40.1 °F 32.0 °F 64% 29.65 in 10.0 mi North 5.8 mph - N/A   Mostly Cloudy
8:15 AM 49.3 °F - 34.2 °F 56% 29.66 in 10.0 mi Calm Calm - N/A   Scattered Clouds
8:35 AM 50.9 °F - 31.8 °F 48% 29.66 in 10.0 mi Calm Calm - N/A   Mostly Cloudy
8:55 AM 52.7 °F - 32.0 °F 45% 29.65 in 10.0 mi South 4.6 mph - N/A   Mostly Cloudy
9:15 AM 57.4 °F - 31.6 °F 38% 29.64 in 10.0 mi South 23.0 mph 32.2 mph N/A   Scattered Clouds
9:35 AM 58.3 °F - 30.0 °F 34% 29.63 in 10.0 mi SSW 17.3 mph 27.6 mph N/A   Scattered Clouds
9:55 AM 59.4 °F - 28.2 °F 31% 29.63 in 10.0 mi SSW 25.3 mph 38.0 mph N/A   Scattered Clouds
10:15 AM 59.5 °F - 25.7 °F 27% 29.62 in 10.0 mi SW 26.5 mph 39.1 mph N/A   Scattered Clouds
10:35 AM 61.9 °F - 23.4 °F 23% 29.61 in 10.0 mi SW 21.9 mph 35.7 mph N/A   Scattered Clouds
10:55 AM 63.0 °F - 23.0 °F 22% 29.60 in 10.0 mi SSW 26.5 mph 40.3 mph N/A   Scattered Clouds
11:15 AM 62.6 °F - 22.1 °F 21% 29.60 in 10.0 mi SW 28.8 mph 40.3 mph N/A   Scattered Clouds
11:35 AM 63.5 °F - 21.2 °F 20% 29.60 in 10.0 mi SW 31.1 mph 39.1 mph N/A   Scattered Clouds
11:55 AM 64.9 °F - 18.3 °F 17% 29.58 in 10.0 mi SW 31.1 mph 39.1 mph N/A   Scattered Clouds
12:15 PM 65.3 °F - 19.4 °F 17% 29.58 in 10.0 mi SW 32.2 mph 48.3 mph N/A   Clear
12:35 PM 65.7 °F - 19.4 °F 17% 29.57 in 10.0 mi SW 35.7 mph 43.7 mph N/A   Clear
12:55 PM 66.4 °F - 20.1 °F 17% 29.57 in 7.0 mi SW 28.8 mph 41.4 mph N/A   Clear
1:15 PM 65.8 °F - 21.4 °F 18% 29.56 in 7.0 mi SW 28.8 mph 38.0 mph N/A   Mostly Cloudy
1:35 PM 63.9 °F - 26.6 °F 24% 29.56 in 10.0 mi West 21.9 mph 27.6 mph N/A   Mostly Cloudy
1:55 PM 64.4 °F - 26.6 °F 24% 29.56 in 10.0 mi West 12.7 mph 33.4 mph N/A   Scattered Clouds
2:15 PM 63.7 °F - 27.1 °F 25% 29.54 in 7.0 mi West 18.4 mph 28.8 mph N/A   Scattered Clouds
2:35 PM 64.8 °F - 26.4 °F 23% 29.54 in 7.0 mi West 19.6 mph 25.3 mph N/A   Scattered Clouds
2:55 PM 64.4 °F - 26.8 °F 24% 29.54 in 10.0 mi WSW 17.3 mph 27.6 mph N/A   Scattered Clouds
3:15 PM 64.0 °F - 26.2 °F 24% 29.54 in 10.0 mi West 17.3 mph 29.9 mph N/A   Mostly Cloudy
3:35 PM 65.3 °F - 25.5 °F 22% 29.54 in 10.0 mi West 17.3 mph 24.2 mph N/A   Mostly Cloudy
3:55 PM 65.3 °F - 25.7 °F 22% 29.53 in 7.0 mi West 17.3 mph 25.3 mph N/A   Mostly Cloudy
4:15 PM 65.1 °F - 24.6 °F 22% 29.53 in 7.0 mi WNW 18.4 mph 25.3 mph N/A   Overcast
4:35 PM 64.2 °F - 26.2 °F 24% 29.52 in 10.0 mi West 16.1 mph 31.1 mph N/A   Overcast
4:55 PM 63.9 °F - 25.7 °F 24% 29.53 in 10.0 mi West 18.4 mph 29.9 mph N/A   Mostly Cloudy
5:15 PM 63.0 °F - 25.5 °F 24% 29.53 in 10.0 mi West 17.3 mph 28.8 mph N/A   Mostly Cloudy
5:35 PM 63.0 °F - 25.3 °F 24% 29.54 in 10.0 mi West 13.8 mph 27.6 mph N/A   Scattered Clouds
5:55 PM 62.2 °F - 25.7 °F 25% 29.54 in 10.0 mi West 19.6 mph 27.6 mph N/A   Clear
6:15 PM 61.3 °F - 26.4 °F 27% 29.54 in 10.0 mi West 21.9 mph 28.8 mph N/A   Mostly Cloudy
6:35 PM 59.9 °F - 26.8 °F 28% 29.56 in 10.0 mi West 17.3 mph 24.2 mph N/A   Mostly Cloudy
6:55 PM 57.7 °F - 27.3 °F 31% 29.57 in 10.0 mi West 18.4 mph 24.2 mph N/A   Overcast
7:15 PM 53.8 °F - 31.6 °F 43% 29.59 in 10.0 mi WSW 13.8 mph 25.3 mph N/A   Overcast
7:35 PM 51.8 °F - 31.3 °F 46% 29.61 in 10.0 mi WSW 19.6 mph 25.3 mph N/A   Overcast
7:55 PM 51.3 °F - 30.7 °F 45% 29.63 in 10.0 mi WSW 13.8 mph 21.9 mph N/A   Overcast
8:15 PM 49.6 °F - 32.0 °F 51% 29.65 in 10.0 mi SW 17.3 mph 25.3 mph N/A   Overcast
8:35 PM 46.2 °F 38.3 °F 32.9 °F 60% 29.68 in 10.0 mi WSW 21.9 mph 27.6 mph N/A   Overcast
8:55 PM 42.4 °F 32.8 °F 32.0 °F 67% 29.70 in 10.0 mi WSW 24.2 mph 33.4 mph N/A   Overcast
9:15 PM 41.0 °F 31.9 °F 30.9 °F 67% 29.73 in 10.0 mi SW 19.6 mph 32.2 mph N/A   Overcast
9:35 PM 42.3 °F 33.1 °F 31.1 °F 65% 29.74 in 10.0 mi WSW 21.9 mph 31.1 mph N/A   Overcast
9:55 PM 41.5 °F 31.6 °F 30.9 °F 66% 29.76 in 10.0 mi WSW 24.2 mph 29.9 mph N/A   Overcast
10:15 PM 39.6 °F 30.0 °F 30.7 °F 71% 29.77 in 10.0 mi West 19.6 mph 24.2 mph N/A   Overcast
10:35 PM 38.3 °F 30.1 °F 31.1 °F 75% 29.78 in 10.0 mi West 13.8 mph - N/A   Overcast
10:55 PM 39.6 °F 36.3 °F 31.3 °F 72% 29.79 in 10.0 mi North 4.6 mph 13.8 mph N/A   Overcast
11:15 PM 38.5 °F 32.7 °F 31.5 °F 76% 29.80 in 10.0 mi North 8.1 mph - N/A   Overcast
11:35 PM 38.8 °F 35.4 °F 31.3 °F 74% 29.81 in 10.0 mi NNW 4.6 mph - N/A   Overcast
11:55 PM 38.3 °F 33.9 °F 31.3 °F 76% 29.81 in 10.0 mi NNE 5.8 mph - N/A   Overcast